User: anonymous   Login
Location: *
(28.2408°N, 53.4600°E)
Time: 12:03:25
(UTC+00:00)
Language:

Cosmos 405 Rocket - Orbit

View from above orbital plane
View from above orbital plane
View from above satellite
View from above satellite

Ground track
Ground track

The orbit data is extracted from the following two-line orbital elements,

1  5118U 71028B   19324.17515273  .00000499  00000-0  25027-4 0  9995
2  5118  81.2577 217.7634 0046865 185.0511 175.0252 15.14439517638275
Epoch (UTC): 20 November 2019 04:12:13
Eccentricity: 0.0046865
inclination: 81.2577°
perigee height: 490 km
apogee height: 555 km
right ascension of ascending node: 217.7634°
argument of perigee: 185.0511°
revolutions per day: 15.14439517
mean anomaly at epoch: 175.0252°
orbit number at epoch: 63827

The dashed part of the orbit path shows where the satellite is in the earth's shadow,  

DLR